Location: Buffign�court
(47.8126°N, 6.0176°E)
Time: 01:19:00
(UTC+00:00)

ATLAS CENTAUR R/B - Pass Details

Date: 16 June 2021
Orbit: 472 x 671 km, 64.6° (Epoch: 13 June)

Event Time Altitude Azimuth Distance (km) Brightness Sun altitude
Rises 23:16:26 0° 307° (NW) 2,821 5.6 -18.7°
Reaches altitude 10° 23:19:21 10° 286° (WNW) 1,957 4.4 -18.7°
Maximum altitude 23:22:03 16° 248° (WSW) 1,624 3.5 -18.7°
Enters shadow 23:22:33 16° 240° (WSW) 1,641 3.5 -18.7°
